JTC319 VTBS-VABB

Flight info

Callsign JTC319
Flight time N/A
Altitude 38000
Route PAST1J PASTO L301 BUSBO L505 OPAKA EMRA2A
Aircraft A319/M-SDE3FGHIRWY/LB1

Departure

Time N/A
Airport Suvarnabhumi Airport (VTBS)

Arrival

Time 2026-04-28 01:33
Airport Chhatrapati Shivaji Maharaj International Airport (VABB)
Time Latitude Longitude Altitude Speed Heading
2026-04-27 22:18 15.17898 93.72774 37830 ft 408 kts 284°
2026-04-27 22:18 15.19262 93.66789 37832 ft 408 kts 284°
2026-04-27 22:19 15.20574 93.61071 37834 ft 408 kts 284°
2026-04-27 22:19 15.21889 93.55351 37836 ft 408 kts 284°
2026-04-27 22:20 15.23203 93.49630 37837 ft 408 kts 284°
2026-04-27 22:20 15.24514 93.43908 37839 ft 408 kts 284°
2026-04-27 22:21 15.25820 93.38185 37837 ft 408 kts 284°
2026-04-27 22:21 15.27121 93.32469 37835 ft 408 kts 284°
2026-04-27 22:22 15.28416 93.26751 37840 ft 408 kts 284°
2026-04-27 22:22 15.29715 93.21036 37838 ft 408 kts 284°
2026-04-27 22:23 15.31022 93.15316 37833 ft 408 kts 284°
2026-04-27 22:23 15.32323 93.09597 37834 ft 408 kts 284°
2026-04-27 22:24 15.33619 93.03874 37837 ft 408 kts 284°
2026-04-27 22:24 15.34912 92.98157 37841 ft 407 kts 284°
2026-04-27 22:25 15.36209 92.92445 37846 ft 407 kts 284°
2026-04-27 22:25 15.37499 92.86736 37843 ft 407 kts 284°
2026-04-27 22:26 15.38776 92.81029 37840 ft 407 kts 284°
2026-04-27 22:26 15.40061 92.75324 37838 ft 406 kts 284°
2026-04-27 22:27 15.41350 92.69622 37836 ft 406 kts 284°
2026-04-27 22:27 15.42621 92.63967 37838 ft 406 kts 284°
2026-04-27 22:28 15.43950 92.58290 37838 ft 405 kts 285°
2026-04-27 22:28 15.45369 92.52640 37837 ft 405 kts 285°
2026-04-27 22:29 15.46789 92.47001 37837 ft 404 kts 285°
2026-04-27 22:29 15.48191 92.41356 37834 ft 404 kts 285°
2026-04-27 22:30 15.49581 92.35711 37835 ft 404 kts 285°
2026-04-27 22:30 15.50969 92.30064 37835 ft 404 kts 285°
2026-04-27 22:31 15.52354 92.24411 37833 ft 404 kts 285°
2026-04-27 22:31 15.53507 92.19714 37831 ft 405 kts 285°
2026-04-27 22:32 15.54899 92.14060 37828 ft 405 kts 285°
2026-04-27 22:32 15.56285 92.08400 37831 ft 405 kts 284°
2026-04-27 22:33 15.57667 92.02741 37835 ft 405 kts 285°
2026-04-27 22:33 15.59049 91.97078 37834 ft 405 kts 284°
2026-04-27 22:34 15.60413 91.91412 37831 ft 405 kts 284°
2026-04-27 22:34 15.61773 91.85749 37831 ft 405 kts 284°
2026-04-27 22:35 15.63135 91.80090 37831 ft 404 kts 284°
2026-04-27 22:35 15.64488 91.74429 37853 ft 403 kts 284°
2026-04-27 22:36 15.65837 91.68794 37851 ft 402 kts 284°
2026-04-27 22:36 15.67190 91.63173 37849 ft 401 kts 284°
2026-04-27 22:37 15.68534 91.57556 37847 ft 401 kts 284°
2026-04-27 22:37 15.69875 91.51938 37849 ft 401 kts 284°
2026-04-27 22:38 15.71215 91.46326 37844 ft 400 kts 284°
2026-04-27 22:38 15.72553 91.40721 37842 ft 400 kts 284°
2026-04-27 22:39 15.73885 91.35110 37842 ft 400 kts 284°
2026-04-27 22:39 15.75208 91.29534 37839 ft 400 kts 284°
2026-04-27 22:40 15.76531 91.23966 37836 ft 400 kts 284°
2026-04-27 22:40 15.77865 91.18363 37833 ft 400 kts 284°
2026-04-27 22:41 15.79192 91.12759 37834 ft 400 kts 284°
2026-04-27 22:41 15.80517 91.07151 37830 ft 400 kts 284°
2026-04-27 22:42 15.81852 91.01533 37828 ft 401 kts 284°
2026-04-27 22:42 15.83182 90.95911 37829 ft 401 kts 284°
2026-04-27 22:43 15.84498 90.90292 37829 ft 401 kts 284°
2026-04-27 22:43 15.85815 90.84670 37830 ft 401 kts 284°
2026-04-27 22:44 15.87136 90.79047 37836 ft 401 kts 284°
2026-04-27 22:44 15.88466 90.73418 37824 ft 401 kts 284°
2026-04-27 22:45 15.89793 90.67785 37823 ft 402 kts 284°
2026-04-27 22:45 15.91114 90.62140 37825 ft 402 kts 284°
2026-04-27 22:46 15.92439 90.56489 37827 ft 403 kts 284°
2026-04-27 22:46 15.93759 90.50837 37828 ft 403 kts 284°
2026-04-27 22:47 15.95079 90.45180 37828 ft 403 kts 284°
2026-04-27 22:47 15.96401 90.39529 37827 ft 402 kts 284°
2026-04-27 22:48 15.97719 90.33875 37827 ft 403 kts 283°
2026-04-27 22:48 15.99024 90.28253 37825 ft 403 kts 284°
2026-04-27 22:49 16.00349 90.22554 37840 ft 403 kts 283°
2026-04-27 22:49 16.01646 90.16940 37844 ft 402 kts 283°
2026-04-27 22:50 16.02985 90.11303 37838 ft 401 kts 284°
2026-04-27 22:50 16.04357 90.05687 37836 ft 401 kts 284°
2026-04-27 22:51 16.05715 90.00071 37834 ft 400 kts 284°
2026-04-27 22:51 16.07060 89.94462 37842 ft 399 kts 283°
2026-04-27 22:52 16.08401 89.88866 37840 ft 398 kts 283°
2026-04-27 22:52 16.09742 89.83281 37839 ft 398 kts 283°
2026-04-27 22:53 16.11082 89.77701 37834 ft 398 kts 283°
2026-04-27 22:53 16.12415 89.72122 37832 ft 397 kts 283°
2026-04-27 22:54 16.13739 89.66554 37831 ft 397 kts 283°
2026-04-27 22:54 16.15075 89.60986 37827 ft 397 kts 283°
2026-04-27 22:55 16.16406 89.55418 37828 ft 397 kts 283°
2026-04-27 22:55 16.17731 89.49849 37825 ft 397 kts 283°
2026-04-27 22:56 16.19053 89.44281 37823 ft 397 kts 283°
2026-04-27 22:56 16.20372 89.38710 37822 ft 397 kts 283°
2026-04-27 22:57 16.21680 89.33165 37823 ft 397 kts 283°
2026-04-27 22:57 16.23005 89.27593 37822 ft 397 kts 283°
2026-04-27 22:58 16.24332 89.22019 37823 ft 397 kts 283°
2026-04-27 22:58 16.25654 89.16443 37822 ft 397 kts 283°
2026-04-27 22:59 16.26967 89.10863 37824 ft 397 kts 283°
2026-04-27 22:59 16.28288 89.05285 37820 ft 397 kts 283°
2026-04-27 23:00 16.30336 88.96936 37820 ft 397 kts 284°
2026-04-27 23:00 16.31694 88.91372 37821 ft 396 kts 284°
2026-04-27 23:01 16.33043 88.85808 37819 ft 396 kts 283°
2026-04-27 23:01 16.34389 88.80239 37816 ft 397 kts 283°
2026-04-27 23:02 16.35742 88.74670 37827 ft 396 kts 284°
2026-04-27 23:02 16.37091 88.69101 37824 ft 396 kts 284°
2026-04-27 23:03 16.38437 88.63539 37821 ft 396 kts 284°
2026-04-27 23:03 16.39772 88.57986 37816 ft 396 kts 284°
2026-04-27 23:04 16.41114 88.52416 37818 ft 396 kts 284°
2026-04-27 23:04 16.42457 88.46847 37816 ft 396 kts 284°
2026-04-27 23:05 16.43781 88.41333 37819 ft 396 kts 284°
2026-04-27 23:05 16.45117 88.35762 37819 ft 396 kts 284°
2026-04-27 23:06 16.46462 88.30190 37815 ft 396 kts 284°
2026-04-27 23:06 16.47799 88.24619 37816 ft 396 kts 283°
2026-04-27 23:07 16.49131 88.19046 37814 ft 396 kts 283°
2026-04-27 23:07 16.50461 88.13468 37814 ft 396 kts 283°
2026-04-27 23:08 16.51790 88.07895 37810 ft 397 kts 283°
2026-04-27 23:08 16.53117 88.02314 37811 ft 397 kts 283°
2026-04-27 23:09 16.54444 87.96734 37812 ft 397 kts 283°
2026-04-27 23:09 16.55767 87.91153 37812 ft 397 kts 283°
2026-04-27 23:10 16.57102 87.85572 37806 ft 397 kts 283°
2026-04-27 23:10 16.58434 87.79990 37807 ft 397 kts 283°
2026-04-27 23:11 16.59753 87.74404 37811 ft 397 kts 283°
2026-04-27 23:11 16.61067 87.68816 37804 ft 397 kts 283°
2026-04-27 23:12 16.62381 87.63228 37800 ft 397 kts 283°
2026-04-27 23:12 16.63696 87.57636 37801 ft 397 kts 283°
2026-04-27 23:13 16.65018 87.52047 37804 ft 397 kts 283°
2026-04-27 23:13 16.66332 87.46453 37804 ft 397 kts 283°
2026-04-27 23:14 16.67652 87.40857 37805 ft 397 kts 283°
2026-04-27 23:14 16.68969 87.35267 37828 ft 397 kts 283°
2026-04-27 23:15 16.70263 87.29727 37822 ft 395 kts 283°
2026-04-27 23:15 16.71563 87.24169 37819 ft 394 kts 283°
2026-04-27 23:16 16.72858 87.18620 37818 ft 393 kts 283°
2026-04-27 23:16 16.74158 87.13078 37815 ft 393 kts 283°
2026-04-27 23:17 16.75479 87.07547 37813 ft 393 kts 283°
2026-04-27 23:17 16.76805 87.02023 37810 ft 393 kts 283°
2026-04-27 23:18 16.78118 86.96492 37807 ft 392 kts 283°
2026-04-27 23:18 16.79427 86.90990 37803 ft 392 kts 283°
2026-04-27 23:19 16.80738 86.85460 37800 ft 392 kts 283°
2026-04-27 23:19 16.82043 86.79930 37801 ft 392 kts 283°
2026-04-27 23:20 16.83357 86.74402 37803 ft 392 kts 283°
2026-04-27 23:20 16.84451 86.69805 37803 ft 392 kts 283°
2026-04-27 23:21 16.85750 86.64272 37805 ft 392 kts 283°
2026-04-27 23:21 16.87045 86.58736 37799 ft 393 kts 283°
2026-04-27 23:22 16.88346 86.53199 37796 ft 393 kts 283°
2026-04-27 23:22 16.89654 86.47663 37794 ft 393 kts 283°
2026-04-27 23:23 16.90957 86.42120 37792 ft 393 kts 283°
2026-04-27 23:23 16.92256 86.36573 37793 ft 393 kts 283°
2026-04-27 23:24 16.93549 86.31025 37793 ft 393 kts 283°
2026-04-27 23:24 16.94840 86.25513 37791 ft 393 kts 283°
2026-04-27 23:25 16.96146 86.19964 37797 ft 393 kts 283°
2026-04-27 23:25 16.97439 86.14409 37779 ft 394 kts 282°
2026-04-27 23:26 16.98737 86.08838 37775 ft 395 kts 282°
2026-04-27 23:26 17.00036 86.03247 37776 ft 396 kts 282°
2026-04-27 23:27 17.01334 85.97654 37813 ft 396 kts 282°
2026-04-27 23:27 17.02628 85.92074 37819 ft 394 kts 282°
2026-04-27 23:28 17.03917 85.86524 37816 ft 393 kts 282°
2026-04-27 23:28 17.05205 85.80985 37814 ft 392 kts 282°
2026-04-27 23:29 17.06485 85.75455 37812 ft 391 kts 282°
2026-04-27 23:29 17.07764 85.69932 37809 ft 391 kts 282°
2026-04-27 23:30 17.09023 85.64409 37807 ft 391 kts 282°
2026-04-27 23:30 17.10281 85.58925 37805 ft 390 kts 282°
2026-04-27 23:31 17.11554 85.53409 37802 ft 390 kts 282°
2026-04-27 23:31 17.12821 85.47890 37802 ft 390 kts 282°
2026-04-27 23:32 17.14092 85.42370 37791 ft 390 kts 282°
2026-04-27 23:32 17.15357 85.36844 37781 ft 391 kts 282°
2026-04-27 23:33 17.16621 85.31301 37779 ft 392 kts 282°
2026-04-27 23:33 17.17919 85.25753 37781 ft 393 kts 282°
2026-04-27 23:34 17.19250 85.20208 37784 ft 393 kts 282°
2026-04-27 23:34 17.20586 85.14656 37788 ft 394 kts 282°
2026-04-27 23:35 17.21911 85.09098 37790 ft 394 kts 282°
2026-04-27 23:35 17.23229 85.03537 37789 ft 394 kts 282°
2026-04-27 23:36 17.24539 84.97967 37787 ft 394 kts 282°
2026-04-27 23:36 17.25857 84.92395 37790 ft 395 kts 282°
2026-04-27 23:37 17.27177 84.86817 37791 ft 395 kts 282°
2026-04-27 23:37 17.28493 84.81238 37790 ft 395 kts 282°
2026-04-27 23:38 17.29810 84.75655 37790 ft 395 kts 282°
2026-04-27 23:38 17.31127 84.70073 37797 ft 395 kts 282°
2026-04-27 23:39 17.32438 84.64483 37792 ft 395 kts 282°
2026-04-27 23:39 17.33736 84.58940 37820 ft 394 kts 282°
2026-04-27 23:40 17.35043 84.53385 37824 ft 392 kts 282°
2026-04-27 23:40 17.36346 84.47847 37819 ft 391 kts 282°
2026-04-27 23:41 17.37698 84.42336 37814 ft 391 kts 283°
2026-04-27 23:41 17.39068 84.36836 37811 ft 390 kts 283°
2026-04-27 23:42 17.40419 84.31336 37807 ft 390 kts 283°
2026-04-27 23:42 17.41768 84.25838 37798 ft 390 kts 283°
2026-04-27 23:43 17.43113 84.20331 37794 ft 390 kts 283°
2026-04-27 23:43 17.44461 84.14822 37794 ft 391 kts 283°
2026-04-27 23:44 17.45808 84.09308 37795 ft 391 kts 283°
2026-04-27 23:44 17.47144 84.03829 37794 ft 391 kts 283°
2026-04-27 23:45 17.48482 83.98312 37793 ft 391 kts 283°
2026-04-27 23:45 17.49823 83.92790 37795 ft 391 kts 283°
2026-04-27 23:46 17.51194 83.87278 37792 ft 391 kts 283°
2026-04-27 23:46 17.52609 83.81768 37791 ft 392 kts 283°
2026-04-27 23:47 17.54023 83.76255 37791 ft 392 kts 283°
2026-04-27 23:47 17.55421 83.70734 37791 ft 392 kts 283°
2026-04-27 23:48 17.56819 83.65211 37790 ft 392 kts 283°
2026-04-27 23:48 17.58217 83.59684 37793 ft 392 kts 283°
2026-04-27 23:49 17.59615 83.54158 37793 ft 392 kts 283°
2026-04-27 23:49 17.61007 83.48631 37796 ft 392 kts 283°
2026-04-27 23:50 17.62400 83.43101 37806 ft 392 kts 283°
2026-04-27 23:50 17.63797 83.37573 37823 ft 392 kts 283°
2026-04-27 23:51 17.65188 83.32046 37824 ft 392 kts 283°
2026-04-27 23:51 17.66567 83.26566 37823 ft 391 kts 283°
2026-04-27 23:52 17.68115 83.21089 37823 ft 392 kts 286°
2026-04-27 23:52 17.69910 83.15690 37823 ft 392 kts 287°
2026-04-27 23:53 17.71729 83.10298 37821 ft 392 kts 286°
2026-04-27 23:53 17.73498 83.04892 37818 ft 392 kts 286°
2026-04-27 23:54 17.75233 82.99474 37816 ft 392 kts 285°
2026-04-27 23:54 17.76969 82.94059 37824 ft 391 kts 286°
2026-04-27 23:55 17.78707 82.88647 37829 ft 392 kts 286°
2026-04-27 23:55 17.80449 82.83233 37841 ft 392 kts 286°
2026-04-27 23:56 17.82187 82.77816 37843 ft 392 kts 285°
2026-04-27 23:56 17.83929 82.72397 37839 ft 392 kts 285°
2026-04-27 23:57 17.85667 82.66975 37852 ft 392 kts 285°
2026-04-27 23:57 17.87402 82.61553 37853 ft 392 kts 285°
2026-04-27 23:58 17.89138 82.56129 37868 ft 392 kts 285°
2026-04-27 23:58 17.90852 82.50735 37868 ft 392 kts 285°
2026-04-27 23:59 17.92581 82.45304 37867 ft 392 kts 285°
2026-04-27 23:59 17.94319 82.39875 37877 ft 392 kts 285°
2026-04-28 00:00 17.96053 82.34446 37878 ft 392 kts 285°
2026-04-28 00:00 17.97778 82.29026 37879 ft 391 kts 285°
2026-04-28 00:01 17.99499 82.23609 37880 ft 391 kts 285°
2026-04-28 00:01 18.01216 82.18194 37876 ft 391 kts 285°
2026-04-28 00:02 18.02929 82.12776 37866 ft 390 kts 285°
2026-04-28 00:02 18.04645 82.07368 37846 ft 390 kts 285°
2026-04-28 00:03 18.06357 82.01959 37844 ft 390 kts 285°
2026-04-28 00:03 18.08080 81.96550 37844 ft 390 kts 285°
2026-04-28 00:04 18.10748 81.88454 37830 ft 391 kts 286°
2026-04-28 00:05 18.12527 81.83061 37820 ft 391 kts 286°
2026-04-28 00:05 18.14296 81.77660 37810 ft 391 kts 286°
2026-04-28 00:06 18.16056 81.72256 37810 ft 391 kts 285°
2026-04-28 00:06 18.17813 81.66848 37810 ft 391 kts 285°
2026-04-28 00:07 18.19574 81.61441 37801 ft 391 kts 286°
2026-04-28 00:07 18.21340 81.56029 37801 ft 391 kts 286°
2026-04-28 00:08 18.23103 81.50612 37804 ft 391 kts 285°
2026-04-28 00:08 18.24855 81.45230 37818 ft 392 kts 285°
2026-04-28 00:09 18.26616 81.39806 37825 ft 392 kts 285°
2026-04-28 00:09 18.28373 81.34383 37829 ft 391 kts 285°
2026-04-28 00:10 18.30126 81.28964 37825 ft 391 kts 285°
2026-04-28 00:10 18.31879 81.23538 37813 ft 392 kts 285°
2026-04-28 00:11 18.33641 81.18102 37812 ft 393 kts 285°
2026-04-28 00:11 18.35403 81.12657 37812 ft 393 kts 285°
2026-04-28 00:12 18.37162 81.07206 37813 ft 393 kts 285°
2026-04-28 00:12 18.38625 81.02676 37817 ft 394 kts 285°
2026-04-28 00:13 18.40386 80.97214 37819 ft 394 kts 285°
2026-04-28 00:13 18.42138 80.91754 37820 ft 394 kts 285°
2026-04-28 00:14 18.43891 80.86285 37807 ft 395 kts 285°
2026-04-28 00:14 18.45645 80.80801 37807 ft 396 kts 285°
2026-04-28 00:15 18.47411 80.75302 37811 ft 396 kts 285°
2026-04-28 00:15 18.49176 80.69798 37816 ft 397 kts 285°
2026-04-28 00:16 18.50941 80.64289 37817 ft 397 kts 285°
2026-04-28 00:16 18.52697 80.58775 37818 ft 397 kts 285°
2026-04-28 00:17 18.54412 80.53242 37818 ft 397 kts 284°
2026-04-28 00:17 18.56065 80.47684 37813 ft 398 kts 284°
2026-04-28 00:18 18.57714 80.42117 37808 ft 398 kts 284°
2026-04-28 00:18 18.59369 80.36579 37810 ft 399 kts 284°
2026-04-28 00:19 18.61043 80.31004 37807 ft 399 kts 284°
2026-04-28 00:19 18.62717 80.25422 37812 ft 399 kts 284°
2026-04-28 00:20 18.64385 80.19836 37811 ft 399 kts 284°
2026-04-28 00:20 18.66051 80.14246 37808 ft 400 kts 284°
2026-04-28 00:21 18.67722 80.08648 37802 ft 401 kts 284°
2026-04-28 00:21 18.69400 80.03038 37803 ft 401 kts 284°
2026-04-28 00:22 18.71074 79.97426 37808 ft 401 kts 284°
2026-04-28 00:22 18.72740 79.91807 37800 ft 402 kts 284°
2026-04-28 00:23 18.74406 79.86179 37803 ft 402 kts 284°
2026-04-28 00:23 18.76065 79.80550 37804 ft 402 kts 284°
2026-04-28 00:24 18.77734 79.74919 37806 ft 402 kts 284°
2026-04-28 00:24 18.79406 79.69294 37811 ft 402 kts 284°
2026-04-28 00:25 18.81070 79.63660 37809 ft 402 kts 284°
2026-04-28 00:25 18.82729 79.58023 37814 ft 402 kts 283°
2026-04-28 00:26 18.84389 79.52406 37826 ft 400 kts 283°
2026-04-28 00:26 18.86030 79.46810 37826 ft 398 kts 283°
2026-04-28 00:27 18.87657 79.41268 37812 ft 398 kts 283°
2026-04-28 00:27 18.89307 79.35650 37801 ft 398 kts 283°
2026-04-28 00:28 18.90937 79.30101 37799 ft 399 kts 283°
2026-04-28 00:28 18.92577 79.24502 37805 ft 399 kts 283°
2026-04-28 00:29 18.94214 79.18899 37792 ft 399 kts 283°
2026-04-28 00:29 18.95847 79.13292 37793 ft 399 kts 283°
2026-04-28 00:30 18.97481 79.07681 37793 ft 400 kts 283°
2026-04-28 00:30 18.99125 79.02071 37790 ft 400 kts 283°
2026-04-28 00:31 19.00767 78.96445 37785 ft 401 kts 283°
2026-04-28 00:31 19.02400 78.90809 37786 ft 401 kts 283°
2026-04-28 00:32 19.04038 78.85165 37789 ft 402 kts 283°
2026-04-28 00:32 19.05675 78.79519 37785 ft 402 kts 283°
2026-04-28 00:33 19.07309 78.73867 37787 ft 402 kts 283°
2026-04-28 00:33 19.08938 78.68214 37791 ft 402 kts 283°
2026-04-28 00:34 19.10565 78.62555 37790 ft 402 kts 283°
2026-04-28 00:34 19.12196 78.56896 37810 ft 402 kts 283°
2026-04-28 00:35 19.13822 78.51247 37806 ft 401 kts 283°
2026-04-28 00:35 19.15437 78.45640 37804 ft 401 kts 283°
2026-04-28 00:36 19.17065 78.39997 37804 ft 401 kts 283°
2026-04-28 00:36 19.18685 78.34355 37805 ft 401 kts 283°
2026-04-28 00:37 19.20307 78.28712 37801 ft 401 kts 283°
2026-04-28 00:37 19.21929 78.23071 37799 ft 401 kts 283°
2026-04-28 00:38 19.23535 78.17426 37800 ft 401 kts 283°
2026-04-28 00:38 19.24995 78.11752 37799 ft 397 kts 275°
2026-04-28 00:39 19.25596 78.05957 37800 ft 396 kts 273°
2026-04-28 00:39 19.26184 78.00158 37800 ft 396 kts 273°
2026-04-28 00:40 19.26772 77.94360 37795 ft 396 kts 273°
2026-04-28 00:40 19.27356 77.88558 37793 ft 396 kts 273°
2026-04-28 00:41 19.27937 77.82756 37796 ft 397 kts 273°
2026-04-28 00:41 19.28515 77.76947 37795 ft 397 kts 273°
2026-04-28 00:42 19.29084 77.71180 37796 ft 397 kts 273°
2026-04-28 00:42 19.29659 77.65370 37801 ft 397 kts 273°
2026-04-28 00:43 19.30230 77.59560 37793 ft 397 kts 273°
2026-04-28 00:43 19.30809 77.53747 37790 ft 397 kts 273°
2026-04-28 00:44 19.31376 77.47933 37795 ft 397 kts 273°
2026-04-28 00:44 19.31939 77.42113 37796 ft 397 kts 273°
2026-04-28 00:45 19.32504 77.36294 37800 ft 397 kts 273°
2026-04-28 00:45 19.33068 77.30471 37800 ft 397 kts 273°
2026-04-28 00:46 19.33631 77.24651 37801 ft 397 kts 273°
2026-04-28 00:46 19.34192 77.18831 37802 ft 397 kts 273°
2026-04-28 00:47 19.34744 77.13052 37828 ft 397 kts 274°
2026-04-28 00:47 19.35300 77.07246 37826 ft 396 kts 274°
2026-04-28 00:48 19.35858 77.01450 37823 ft 395 kts 274°
2026-04-28 00:48 19.36404 76.95663 37820 ft 395 kts 274°
2026-04-28 00:49 19.36949 76.89877 37823 ft 395 kts 274°
2026-04-28 00:49 19.37498 76.84094 37824 ft 395 kts 274°
2026-04-28 00:50 19.38071 76.78312 37824 ft 395 kts 274°
2026-04-28 00:50 19.38694 76.72537 37818 ft 395 kts 274°
2026-04-28 00:51 19.39316 76.66762 37820 ft 395 kts 274°
2026-04-28 00:51 19.39920 76.60983 37822 ft 395 kts 274°
2026-04-28 00:52 19.40523 76.55208 37820 ft 395 kts 274°
2026-04-28 00:52 19.41117 76.49467 37819 ft 395 kts 274°
2026-04-28 00:53 19.41713 76.43683 37815 ft 395 kts 274°
2026-04-28 00:53 19.42312 76.37900 37813 ft 395 kts 274°
2026-04-28 00:54 19.42908 76.32109 37814 ft 395 kts 274°
2026-04-28 00:54 19.43499 76.26318 37815 ft 395 kts 274°
2026-04-28 00:55 19.44090 76.20526 37816 ft 396 kts 274°
2026-04-28 00:55 19.44685 76.14731 37816 ft 396 kts 274°
2026-04-28 00:56 19.45280 76.08936 37820 ft 396 kts 274°
2026-04-28 00:56 19.45864 76.03137 37820 ft 396 kts 274°
2026-04-28 00:57 19.46451 75.97342 37817 ft 396 kts 274°
2026-04-28 00:57 19.47034 75.91543 37820 ft 396 kts 274°
2026-04-28 00:58 19.47616 75.85745 37823 ft 396 kts 274°
2026-04-28 00:58 19.48200 75.79950 37823 ft 396 kts 274°
2026-04-28 00:59 19.48772 75.74183 37819 ft 396 kts 274°
2026-04-28 00:59 19.49347 75.68379 37817 ft 396 kts 274°
2026-04-28 01:00 19.49924 75.62565 37816 ft 397 kts 274°
2026-04-28 01:00 19.50511 75.56753 37820 ft 397 kts 274°
2026-04-28 01:01 19.51104 75.50937 37825 ft 397 kts 274°
2026-04-28 01:01 19.51696 75.45120 37831 ft 397 kts 274°
2026-04-28 01:02 19.52285 75.39299 37829 ft 397 kts 274°
2026-04-28 01:02 19.52869 75.33476 37830 ft 398 kts 274°
2026-04-28 01:03 19.53453 75.27644 37839 ft 398 kts 274°
2026-04-28 01:03 19.53937 75.22794 37835 ft 398 kts 274°
2026-04-28 01:04 19.54523 75.16955 37837 ft 399 kts 274°
2026-04-28 01:04 19.55104 75.11111 37837 ft 399 kts 274°
2026-04-28 01:05 19.55677 75.05265 37838 ft 399 kts 274°
2026-04-28 01:05 19.56256 74.99411 37833 ft 400 kts 274°
2026-04-28 01:06 19.56838 74.93546 37831 ft 400 kts 274°
2026-04-28 01:06 19.57414 74.87676 37832 ft 400 kts 274°
2026-04-28 01:07 19.57984 74.81798 37834 ft 401 kts 274°
2026-04-28 01:07 19.58553 74.75917 37835 ft 401 kts 274°
2026-04-28 01:08 19.59120 74.70035 37840 ft 401 kts 274°
2026-04-28 01:08 19.59691 74.64149 37842 ft 401 kts 274°
2026-04-28 01:09 19.60261 74.58302 37846 ft 401 kts 274°
2026-04-28 01:09 19.59894 74.52447 37845 ft 400 kts 256°
2026-04-28 01:10 19.58357 74.46782 37839 ft 400 kts 255°
2026-04-28 01:10 19.57590 74.43967 36932 ft 398 kts 255°
2026-04-28 01:10 19.56819 74.41124 35539 ft 404 kts 255°
2026-04-28 01:10 19.56040 74.38247 34163 ft 408 kts 255°
2026-04-28 01:11 19.55254 74.35350 32595 ft 410 kts 255°
2026-04-28 01:11 19.54457 74.32422 30838 ft 417 kts 255°
2026-04-28 01:11 19.53649 74.29451 28988 ft 422 kts 255°
2026-04-28 01:11 19.52829 74.26442 27068 ft 427 kts 255°
2026-04-28 01:12 19.52001 74.23400 25236 ft 431 kts 255°
2026-04-28 01:12 19.51165 74.20331 23538 ft 436 kts 254°
2026-04-28 01:12 19.50317 74.17232 21552 ft 438 kts 254°
2026-04-28 01:12 19.49467 74.14134 19687 ft 438 kts 254°
2026-04-28 01:13 19.48618 74.11047 17945 ft 435 kts 254°
2026-04-28 01:13 19.47019 74.05214 16579 ft 381 kts 254°
2026-04-28 01:13 19.46311 74.02627 16331 ft 351 kts 253°
2026-04-28 01:14 19.45654 74.00225 16022 ft 332 kts 253°
2026-04-28 01:14 19.45030 73.97943 15770 ft 323 kts 253°
2026-04-28 01:14 19.44402 73.95653 15529 ft 317 kts 252°
2026-04-28 01:14 19.43797 73.93452 15293 ft 314 kts 253°
2026-04-28 01:15 19.43188 73.91239 15056 ft 311 kts 252°
2026-04-28 01:15 19.42587 73.89047 14821 ft 309 kts 253°
2026-04-28 01:15 19.41909 73.86887 14588 ft 308 kts 244°
2026-04-28 01:15 19.40906 73.84892 14358 ft 306 kts 240°
2026-04-28 01:16 19.39880 73.82912 14126 ft 307 kts 239°
2026-04-28 01:16 19.38859 73.80925 13894 ft 308 kts 240°
2026-04-28 01:16 19.37836 73.78934 13667 ft 307 kts 239°
2026-04-28 01:16 19.36817 73.76947 13421 ft 307 kts 239°
2026-04-28 01:17 19.35801 73.74969 13158 ft 305 kts 239°
2026-04-28 01:17 19.34785 73.72996 12906 ft 305 kts 239°
2026-04-28 01:17 19.33768 73.71028 12657 ft 304 kts 240°
2026-04-28 01:17 19.32757 73.69068 12407 ft 303 kts 240°
2026-04-28 01:18 19.31751 73.67115 12168 ft 302 kts 240°
2026-04-28 01:18 19.30747 73.65169 11953 ft 301 kts 240°
2026-04-28 01:18 19.29746 73.63229 11643 ft 300 kts 240°
2026-04-28 01:18 19.28747 73.61295 11310 ft 299 kts 240°
2026-04-28 01:19 19.27753 73.59370 10974 ft 297 kts 240°
2026-04-28 01:19 19.26763 73.57454 10633 ft 296 kts 240°
2026-04-28 01:19 19.25777 73.55548 10296 ft 295 kts 240°
2026-04-28 01:19 19.24795 73.53648 9961 ft 293 kts 241°
2026-04-28 01:20 19.23817 73.51761 9627 ft 291 kts 241°
2026-04-28 01:20 19.22865 73.49925 9482 ft 279 kts 241°
2026-04-28 01:20 19.21946 73.48152 9290 ft 271 kts 241°
2026-04-28 01:20 19.20920 73.46503 9160 ft 270 kts 225°
2026-04-28 01:21 19.19410 73.45390 8929 ft 268 kts 213°
2026-04-28 01:21 19.18097 73.44027 8799 ft 266 kts 243°
2026-04-28 01:21 19.17532 73.42174 8679 ft 265 kts 259°
2026-04-28 01:21 19.17219 73.40257 8563 ft 265 kts 262°
2026-04-28 01:22 19.16936 73.38332 8441 ft 265 kts 261°
2026-04-28 01:22 19.16605 73.36419 8306 ft 265 kts 259°
2026-04-28 01:22 19.16217 73.34516 8186 ft 264 kts 258°
2026-04-28 01:22 19.15788 73.32628 8069 ft 264 kts 257°
2026-04-28 01:23 19.15333 73.30749 7953 ft 264 kts 257°
2026-04-28 01:23 19.14861 73.28876 7832 ft 263 kts 256°
2026-04-28 01:23 19.14378 73.26987 7359 ft 270 kts 256°
2026-04-28 01:23 19.13888 73.25089 7113 ft 265 kts 257°
2026-04-28 01:24 19.13397 73.23210 6770 ft 265 kts 257°
2026-04-28 01:24 19.12908 73.21338 6425 ft 264 kts 257°
2026-04-28 01:24 19.12421 73.19470 6115 ft 263 kts 257°
2026-04-28 01:24 19.11938 73.17614 5794 ft 262 kts 258°
2026-04-28 01:25 19.11461 73.15785 5647 ft 254 kts 258°
2026-04-28 01:25 19.10999 73.14021 5524 ft 244 kts 258°
2026-04-28 01:25 19.10555 73.12324 5401 ft 234 kts 258°
2026-04-28 01:25 19.10127 73.10682 5155 ft 231 kts 259°
2026-04-28 01:26 19.09706 73.09057 4748 ft 228 kts 259°
2026-04-28 01:26 19.09289 73.07442 4275 ft 227 kts 260°
2026-04-28 01:26 19.09110 73.05816 3807 ft 221 kts 274°
2026-04-28 01:26 19.09090 73.04220 3363 ft 220 kts 274°
2026-04-28 01:27 19.09074 73.02608 2908 ft 219 kts 273°
2026-04-28 01:27 19.09060 73.00981 2463 ft 220 kts 272°
2026-04-28 01:27 19.09040 72.99428 2151 ft 201 kts 271°
2026-04-28 01:27 19.09021 72.98024 1896 ft 181 kts 270°
2026-04-28 01:28 19.09005 72.96754 1701 ft 166 kts 270°
2026-04-28 01:28 19.08990 72.95573 1472 ft 155 kts 269°
2026-04-28 01:28 19.08976 72.94484 1276 ft 142 kts 269°
2026-04-28 01:28 19.08962 72.93475 1104 ft 132 kts 269°
2026-04-28 01:29 19.08958 72.93200 1058 ft 128 kts 269°
2026-04-28 01:31 19.08947 72.92394 948 ft 124 kts 269°
2026-04-28 01:31 19.08935 72.91499 788 ft 120 kts 269°
2026-04-28 01:31 19.08924 72.90619 634 ft 119 kts 269°
2026-04-28 01:31 19.08912 72.89747 476 ft 118 kts 269°
2026-04-28 01:32 19.08899 72.88878 305 ft 118 kts 269°
2026-04-28 01:32 19.08892 72.88013 173 ft 118 kts 270°
2026-04-28 01:32 19.08874 72.87168 68 ft 116 kts 269°
2026-04-28 01:32 19.08865 72.86433 49 ft 80 kts 269°
2026-04-28 01:33 19.08854 72.86018 47 ft 40 kts 262°
2026-04-28 01:33 19.08781 72.85836 48 ft 16 kts 239°
2026-04-28 01:33 19.08722 72.85762 49 ft 6 kts 211°
2026-04-28 01:33 19.08695 72.85772 47 ft 6 kts 102°
2026-04-28 01:34 19.08691 72.85833 49 ft 11 kts 73°
2026-04-28 01:34 19.08730 72.85920 47 ft 15 kts 73°
2026-04-28 01:34 19.08738 72.86015 49 ft 12 kts 91°
2026-04-28 01:34 19.08739 72.86064 49 ft 7 kts 88°
2026-04-28 01:35 19.08739 72.86131 49 ft 11 kts 89°
2026-04-28 01:35 19.08740 72.86233 49 ft 16 kts 89°
2026-04-28 01:35 19.08742 72.86350 49 ft 12 kts 87°
2026-04-28 01:35 19.08696 72.86394 49 ft 5 kts 145°
2026-04-28 01:36 19.08700 72.86404 49 ft 1 kts 37°
2026-04-28 01:36 19.08703 72.86402 49 ft 0 kts 356°